• In United Kingdom
  • List of Countries
  • For 7 days
  • Water Temperature
  • Satellite Maps
  • Weather Map
  • Weather Widgets
  • user-avatar
    Login

    Hourly Weather Qala i Naw

    Today, 23 October, Tuesday

    Time Temperature Precipitation Wind Pressure Humidity
    00:00 +16°C° 0 mm 1 mps 683 mmHg 32%
    01:00 +16°C° 0 mm 1 mps 682 mmHg 33%
    02:00 +16°C° 0 mm 1 mps 682 mmHg 33%
    03:00 +15°C° 0 mm 1 mps 682 mmHg 34%
    04:00 +15°C° 0 mm 1 mps 682 mmHg 35%
    05:00 +15°C° 0 mm 1 mps 682 mmHg 34%
    06:00 +16°C° 0 mm 1 mps 683 mmHg 34%
    07:00 +16°C° 0 mm 1 mps 683 mmHg 33%
    08:00 +19°C° 0 mm 1 mps 683 mmHg 28%
    09:00 +21°C° 0 mm 1 mps 684 mmHg 24%
    10:00 +23°C° 0 mm 1 mps 684 mmHg 20%
    11:00 +24°C° 0 mm 1 mps 684 mmHg 19%
    12:00 +25°C° 0 mm 1 mps 683 mmHg 18%
    13:00 +26°C° 0 mm 2 mps 683 mmHg 17%
    14:00 +25°C° 0 mm 2 mps 683 mmHg 17%
    15:00 +25°C° 0 mm 2 mps 683 mmHg 18%
    16:00 +25°C° 0 mm 2 mps 683 mmHg 18%
    17:00 +23°C° 0 mm 1 mps 683 mmHg 20%
    18:00 +22°C° 0 mm 1 mps 682 mmHg 22%
    19:00 +20°C° 0 mm 1 mps 682 mmHg 24%
    20:00 +20°C° 0 mm 1 mps 682 mmHg 25%
    21:00 +19°C° 0 mm 1 mps 682 mmHg 26%
    22:00 +19°C° 0 mm 1 mps 682 mmHg 27%
    23:00 +18°C° 0 mm 1 mps 682 mmHg 28%

    Tomorrow, 24 October, Wednesday

    Time Temperature Precipitation Wind Pressure Humidity
    00:00 +18°C° 0 mm 1 mps 682 mmHg 28%
    01:00 +16°C° 0 mm 1 mps 681 mmHg 29%
    02:00 +16°C° 0 mm 1 mps 681 mmHg 30%
    03:00 +15°C° 0 mm 1 mps 681 mmHg 31%
    04:00 +15°C° 0 mm 1 mps 681 mmHg 31%
    05:00 +16°C° 0 mm 1 mps 681 mmHg 30%
    06:00 +16°C° 0 mm 1 mps 681 mmHg 30%
    07:00 +18°C° 0 mm 1 mps 682 mmHg 29%
    08:00 +20°C° 0 mm 1 mps 682 mmHg 26%
    09:00 +22°C° 0 mm 1 mps 683 mmHg 23%
    10:00 +24°C° 0 mm 1 mps 683 mmHg 21%
    11:00 +25°C° 0 mm 1 mps 683 mmHg 20%
    12:00 +26°C° 0 mm 2 mps 683 mmHg 19%
    13:00 +27°C° 0 mm 2 mps 682 mmHg 19%
    14:00 +26°C° 0 mm 3 mps 682 mmHg 19%
    15:00 +26°C° 0 mm 3 mps 682 mmHg 19%
    16:00 +26°C° 0 mm 3 mps 682 mmHg 20%
    17:00 +24°C° 0 mm 3 mps 681 mmHg 22%
    18:00 +23°C° 0 mm 2 mps 681 mmHg 24%
    19:00 +21°C° 0 mm 1 mps 681 mmHg 26%
    20:00 +21°C° 0 mm 1 mps 681 mmHg 28%
    21:00 +20°C° 0 mm 1 mps 681 mmHg 29%
    22:00 +20°C° 0 mm 1 mps 682 mmHg 30%
    23:00 +18°C° 0 mm 2 mps 681 mmHg 31%

    Day after tomorrow, 25 October, Thursday

    Time Temperature Precipitation Wind Pressure Humidity
    00:00 +18°C° 0 mm 2 mps 681 mmHg 32%
    01:00 +18°C° 0 mm 2 mps 681 mmHg 33%
    02:00 +18°C° 0 mm 2 mps 681 mmHg 33%
    03:00 +18°C° 0 mm 2 mps 681 mmHg 34%
    04:00 +17°C° 0 mm 3 mps 681 mmHg 34%
    05:00 +18°C° 0 mm 3 mps 681 mmHg 33%
    06:00 +18°C° 0 mm 3 mps 682 mmHg 32%
    07:00 +18°C° 0 mm 3 mps 682 mmHg 31%
    08:00 +21°C° 0 mm 3 mps 682 mmHg 27%
    09:00 +24°C° 0 mm 3 mps 683 mmHg 23%
    10:00 +27°C° 0 mm 4 mps 683 mmHg 19%
    11:00 +28°C° 0 mm 4 mps 683 mmHg 18%
    12:00 +29°C° 0 mm 5 mps 682 mmHg 17%
    13:00 +30°C° 0 mm 5 mps 682 mmHg 16%
    14:00 +29°C° 0 mm 5 mps 682 mmHg 16%
    15:00 +29°C° 0 mm 5 mps 682 mmHg 16%
    16:00 +29°C° 0 mm 5 mps 682 mmHg 16%
    17:00 +27°C° 0 mm 4 mps 682 mmHg 18%
    18:00 +26°C° 0 mm 3 mps 682 mmHg 20%
    19:00 +24°C° 0 mm 3 mps 682 mmHg 22%
    20:00 +24°C° 0 mm 3 mps 682 mmHg 23%
    21:00 +22°C° 0 mm 3 mps 682 mmHg 23%
    22:00 +22°C° 0 mm 4 mps 682 mmHg 24%
    23:00 +22°C° 0 mm 4 mps 682 mmHg 25%

    26 October, Friday

    Time Temperature Precipitation Wind Pressure Humidity
    00:00 +21°C° 0 mm 4 mps 682 mmHg 25%
    01:00 +21°C° 0 mm 4 mps 682 mmHg 26%
    02:00 +21°C° 0 mm 4 mps 682 mmHg 26%
    03:00 +21°C° 0 mm 4 mps 682 mmHg 26%
    04:00 +20°C° 0 mm 4 mps 682 mmHg 27%
    05:00 +21°C° 0 mm 4 mps 683 mmHg 26%
    06:00 +21°C° 0 mm 4 mps 683 mmHg 26%
    07:00 +21°C° 0 mm 5 mps 683 mmHg 26%
    08:00 +25°C° 0 mm 5 mps 684 mmHg 23%
    09:00 +27°C° 0 mm 6 mps 684 mmHg 20%
    10:00 +30°C° 0 mm 6 mps 685 mmHg 17%
    11:00 +32°C° 0 mm 7 mps 684 mmHg 16%
    12:00 +33°C° 0 mm 7 mps 684 mmHg 15%
    13:00 +33°C° 0 mm 8 mps 683 mmHg 14%
    14:00 +33°C° 0 mm 7 mps 683 mmHg 15%
    15:00 +32°C° 0 mm 7 mps 683 mmHg 16%
    16:00 +32°C° 0 mm 6 mps 683 mmHg 17%
    17:00 +30°C° 0 mm 6 mps 683 mmHg 19%
    18:00 +28°C° 0 mm 5 mps 683 mmHg 21%
    19:00 +27°C° 0 mm 4 mps 683 mmHg 24%
    20:00 +26°C° 0 mm 5 mps 683 mmHg 24%
    21:00 +26°C° 0 mm 5 mps 683 mmHg 24%
    22:00 +25°C° 0 mm 5 mps 683 mmHg 25%
    23:00 +25°C° 0 mm 5 mps 683 mmHg 25%

    27 October, Saturday

    Time Temperature Precipitation Wind Pressure Humidity
    00:00 +25°C° 0 mm 5 mps 683 mmHg 26%
    01:00 +23°C° 0 mm 4 mps 683 mmHg 26%
    02:00 +23°C° 0 mm 4 mps 683 mmHg 27%
    03:00 +23°C° 0 mm 4 mps 683 mmHg 27%
    04:00 +22°C° 0 mm 4 mps 683 mmHg 28%
    05:00 +23°C° 0 mm 4 mps 683 mmHg 28%
    06:00 +23°C° 0 mm 5 mps 683 mmHg 29%
    07:00 +23°C° 0 mm 5 mps 684 mmHg 29%
    08:00 +26°C° 0 mm 5 mps 684 mmHg 26%
    09:00 +28°C° 0 mm 5 mps 685 mmHg 24%
    10:00 +32°C° 0 mm 5 mps 685 mmHg 22%
    11:00 +32°C° 0 mm 5 mps 685 mmHg 21%
    12:00 +33°C° 0 mm 5 mps 685 mmHg 20%
    13:00 +34°C° 0 mm 5 mps 684 mmHg 19%
    14:00 +32°C° 0 mm 6 mps 684 mmHg 22%
    15:00 +29°C° 0 mm 6 mps 684 mmHg 25%
    16:00 +27°C° 0 mm 6 mps 684 mmHg 28%
    17:00 +26°C° 0 mm 6 mps 685 mmHg 34%
    18:00 +23°C° 0 mm 6 mps 686 mmHg 39%
    19:00 +22°C° 0 mm 5 mps 686 mmHg 45%
    20:00 +21°C° 0 mm 5 mps 687 mmHg 54%
    21:00 +19°C° 0 mm 5 mps 687 mmHg 62%
    22:00 +17°C° 0 mm 6 mps 687 mmHg 71%
    23:00 +16°C° 0.2 mm 5 mps 687 mmHg 76%

    28 October, Sunday

    Time Temperature Precipitation Wind Pressure Humidity
    00:00 +15°C° 0.2 mm 5 mps 687 mmHg 81%
    01:00 +14°C° 0.2 mm 5 mps 687 mmHg 86%
    02:00 +13°C° 0.7 mm 5 mps 687 mmHg 87%
    03:00 +13°C° 0.7 mm 6 mps 688 mmHg 88%
    04:00 +11°C° 0.7 mm 6 mps 688 mmHg 89%
    05:00 +10°C° 1 mm 5 mps 688 mmHg 89%
    06:00 +10°C° 1 mm 5 mps 689 mmHg 88%
    07:00 +9°C° 1 mm 5 mps 689 mmHg 88%
    08:00 +10°C° 1.3 mm 4 mps 689 mmHg 87%
    09:00 +10°C° 1.3 mm 4 mps 689 mmHg 85%
    10:00 +10°C° 1.3 mm 3 mps 689 mmHg 83%
    11:00 +11°C° 0.4 mm 3 mps 689 mmHg 81%
    12:00 +11°C° 0.4 mm 4 mps 689 mmHg 79%
    13:00 +12°C° 0.4 mm 4 mps 688 mmHg 76%
    14:00 +12°C° 0.1 mm 4 mps 688 mmHg 76%
    15:00 +12°C° 0.1 mm 4 mps 688 mmHg 76%
    16:00 +12°C° 0.1 mm 4 mps 689 mmHg 76%
    17:00 +12°C° 0.1 mm 4 mps 689 mmHg 76%
    18:00 +12°C° 0.1 mm 4 mps 689 mmHg 76%
    19:00 +12°C° 0.1 mm 4 mps 689 mmHg 75%
    20:00 +11°C° 0.1 mm 4 mps 689 mmHg 74%
    21:00 +11°C° 0.1 mm 4 mps 689 mmHg 72%
    22:00 +11°C° 0.1 mm 4 mps 688 mmHg 71%
    23:00 +11°C° 0 mm 4 mps 688 mmHg 69%

    29 October, Monday

    Time Temperature Precipitation Wind Pressure Humidity
    00:00 +10°C° 0 mm 4 mps 688 mmHg 67%
    01:00 +10°C° 0 mm 4 mps 687 mmHg 65%
    02:00 +10°C° 0.1 mm 3 mps 687 mmHg 64%
    03:00 +9°C° 0.1 mm 3 mps 687 mmHg 63%
    04:00 +9°C° 0.1 mm 3 mps 687 mmHg 63%
    05:00 +9°C° 0.1 mm 3 mps 687 mmHg 63%
    06:00 +9°C° 0.1 mm 3 mps 687 mmHg 63%
    07:00 +8°C° 0.1 mm 2 mps 687 mmHg 63%
    08:00 +9°C° 0 mm 3 mps 687 mmHg 59%
    09:00 +10°C° 0 mm 3 mps 687 mmHg 56%
    10:00 +11°C° 0 mm 3 mps 687 mmHg 52%
    11:00 +11°C° 0 mm 3 mps 687 mmHg 49%
    12:00 +12°C° 0 mm 4 mps 686 mmHg 46%
    13:00 +13°C° 0 mm 4 mps 686 mmHg 43%
    14:00 +12°C° 0 mm 4 mps 686 mmHg 43%
    15:00 +12°C° 0 mm 4 mps 686 mmHg 42%
    16:00 +12°C° 0 mm 4 mps 686 mmHg 42%
    17:00 +11°C° 0 mm 3 mps 686 mmHg 43%
    18:00 +11°C° 0 mm 3 mps 686 mmHg 44%
    19:00 +12°C° 0 mm 2 mps 686 mmHg 46%
    20:00 +10°C° 0 mm 2 mps 686 mmHg 47%
    21:00 +10°C° 0 mm 2 mps 686 mmHg 48%
    22:00 +10°C° 0 mm 2 mps 686 mmHg 49%
    23:00 +10°C° 0.1 mm 2 mps 686 mmHg 51%
    Show more